Temp
25 23 22 22 22 23 24 25 25 25 25 25 24 24 23 23 24 28 28 29 30 28 28 28 27 28 28 28 29 29 29 26 23 23 23 22 22 22 22 21 20 20 20 21 20 21 21 22 22 22 22 22 22 22 21 21 20 20 20 19 19 19 20 20 20 20 20 20 20 20 20 19 19 19 18 18 18 18 18 17 17 17 17 17 17 17
24 22 22 23 24 25 25 26 26 25 25 25 24 23 23 23 24 28 28 28 29 27 26 27 27 27 27 27 28 28 29 26 23 23 23 23 22 22 22 21 21 21 21 21 21 21 21 22 23 22 22 22 22 21 21 21 20 20 20 19 19 19 20 20 20 20 20 20 20 20 20 19 19 19 18 18 18 18 18 18 17 17 17 18 17 17
23 22 23 25 25 26 26 26 26 25 25 25 24 23 22 23 25 27 27 28 29 27 26 27 27 26 26 27 27 28 28 27 25 24 23 23 23 23 23 22 21 22 22 21 21 21 21 22 22 22 22 22 22 21 21 21 20 20 20 19 19 20 20 20 20 20 21 21 20 20 20 19 19 19 18 18 17 17 17 17 17 17 17 17 18 18
22 23 25 25 26 26 26 26 26 25 25 24 24 23 22 24 24 23 25 27 27 26 26 27 26 25 26 27 28 28 28 27 27 26 24 24 24 23 23 22 22 22 21 21 21 21 21 21 22 21 21 22 21 21 21 21 20 20 20 19 19 20 20 20 20 21 20 20 20 20 19 19 19 18 18 17 17 17 17 17 17 17 17 17 17 18
23 25 26 26 26 26 25 25 25 24 24 24 24 23 23 24 24 24 26 27 26 26 27 26 24 24 26 26 27 28 28 27 28 28 28 27 25 24 23 23 22 22 22 21 21 21 21 20 20 21 21 21 21 21 21 21 20 20 19 19 19 20 20 20 20 20 20 20 20 19 19 19 18 18 18 17 17 17 17 16 17 17 17 17 17 17
24 26 26 26 26 26 25 25 25 24 23 23 24 25 25 25 25 25 26 26 23 23 25 25 21 21 25 25 26 28 28 27 28 28 28 28 26 23 23 23 22 22 22 21 21 21 20 19 20 20 21 21 21 21 21 21 20 20 20 19 19 20 20 20 20 20 20 20 20 19 19 18 18 18 18 17 17 17 17 16 16 16 16 17 17 17
25 26 26 26 25 25 25 24 25 25 22 22 24 25 26 26 25 25 25 24 21 21 25 25 22 21 23 24 26 27 27 27 27 28 28 28 26 24 23 23 22 22 22 22 22 22 21 19 19 19 20 21 21 21 21 21 21 20 20 20 20 20 20 20 20 20 20 20 20 20 19 19 18 18 18 18 17 17 17 16 16 16 16 16 16 16
26 26 26 26 26 25 24 24 25 26 23 22 25 26 26 26 25 25 25 23 22 23 24 25 23 21 21 23 26 27 26 26 27 27 28 28 27 24 23 23 23 22 22 22 22 22 21 20 19 19 20 21 21 21 21 21 21 20 20 20 20 20 20 20 20 20 20 20 20 20 19 19 18 18 18 18 17 17 17 17 16 16 16 16 16 16
26 25 25 26 25 24 24 24 26 26 24 24 26 27 26 26 25 25 24 23 23 23 21 22 23 21 20 23 26 27 25 25 26 27 27 27 27 24 23 23 23 23 23 22 22 22 21 20 20 20 20 21 21 21 21 21 21 20 20 20 20 20 20 20 20 20 20 20 20 20 19 19 18 18 18 18 17 17 17 17 17 16 16 16 16 16
26 26 26 26 25 24 25 26 26 25 25 25 27 26 26 26 26 25 24 22 22 22 20 21 22 21 20 22 24 25 24 25 26 27 27 26 25 25 24 24 23 23 23 23 22 22 21 20 21 21 20 21 21 21 21 21 21 20 20 20 20 20 20 19 19 19 19 20 20 20 19 19 18 18 18 18 17 17 17 17 17 17 16 16 16 16
27 27 27 26 25 25 26 26 26 26 26 26 26 26 25 25 25 24 24 23 21 20 21 22 22 21 21 21 23 24 24 25 26 26 27 25 24 25 25 24 24 23 23 23 22 22 21 20 21 21 21 20 20 20 20 20 20 19 19 20 20 20 19 19 19 19 19 20 20 19 19 19 18 18 18 17 17 17 17 17 17 16 16 16 16 16
26 26 26 26 26 26 26 25 26 27 27 26 25 24 23 22 23 22 22 22 21 20 21 22 22 21 20 21 23 25 26 26 26 26 26 25 24 25 24 25 25 23 22 22 22 22 21 21 20 20 20 19 19 19 19 19 19 18 18 19 20 19 19 19 19 19 19 20 20 19 19 19 19 18 18 17 17 17 17 17 17 16 16 16 16 16
25 25 26 26 26 27 26 24 25 26 26 26 24 23 21 20 21 20 20 21 20 20 21 22 21 21 20 22 24 26 27 26 26 26 25 24 24 24 24 24 23 22 22 21 21 21 22 21 19 18 18 18 17 18 19 19 18 17 17 18 18 18 19 19 19 19 19 20 20 19 19 19 19 18 18 18 17 17 17 17 17 17 16 16 16 16
23 24 26 26 25 26 26 24 23 24 25 25 23 22 20 20 20 20 20 20 20 20 21 22 21 20 20 22 24 25 26 25 24 24 24 24 25 25 24 23 22 21 21 21 21 21 21 20 19 19 18 17 16 17 18 18 17 17 17 16 16 17 18 19 19 19 19 20 20 19 19 19 19 19 18 18 17 17 17 17 17 17 17 16 16 16
21 22 24 25 24 25 26 25 24 24 24 24 25 23 21 21 20 20 20 20 20 20 21 21 21 20 20 22 24 25 25 24 23 24 25 24 24 23 22 21 21 21 20 20 21 21 21 20 19 19 19 18 17 16 17 17 17 16 17 16 16 16 16 18 19 19 19 20 19 19 19 19 19 19 18 18 18 18 18 17 17 17 17 17 16 16
21 21 24 26 25 25 26 26 26 26 23 24 25 24 22 22 21 20 20 20 20 20 20 21 20 21 21 23 25 25 25 24 24 24 24 24 22 21 21 21 20 20 20 20 20 20 20 19 19 20 19 19 18 16 16 17 16 16 16 16 16 15 15 16 18 18 18 19 19 19 19 19 19 19 19 18 18 18 18 18 18 17 17 17 17 17
21 21 25 26 25 26 26 26 27 25 23 23 23 22 23 24 23 21 20 21 20 20 20 20 20 21 21 23 24 25 25 24 24 24 23 22 21 21 20 20 20 20 20 20 20 20 20 19 19 20 20 19 18 17 17 18 18 16 15 15 15 15 14 15 16 17 17 18 19 19 19 19 19 19 19 18 18 18 18 18 18 18 18 17 17 17
22 21 24 25 24 26 27 27 27 26 25 23 22 23 25 25 24 22 20 20 20 19 20 20 20 20 20 21 23 24 25 24 24 24 22 21 21 20 19 19 19 19 20 20 19 18 18 17 17 18 19 20 19 19 18 18 18 17 16 16 15 14 14 14 16 17 17 18 19 18 18 19 19 19 19 19 19 18 18 18 18 18 18 18 17 17
23 21 22 25 24 25 27 26 25 26 26 25 23 25 24 22 21 21 20 20 20 19 20 20 21 20 20 21 21 23 24 23 23 22 21 21 20 19 19 19 19 19 19 19 18 17 17 16 16 17 17 18 19 19 19 19 19 18 17 16 15 13 13 15 17 17 18 18 19 18 18 19 19 19 19 19 19 19 19 18 18 18 18 18 18 17
23 21 21 24 24 24 25 24 22 23 25 25 25 25 24 22 21 21 21 20 20 20 20 20 20 20 20 20 21 22 23 22 22 22 21 20 20 19 19 19 19 19 19 18 17 17 17 16 16 17 17 17 18 18 19 19 19 19 18 16 15 14 14 16 17 18 18 18 18 18 19 19 19 19 19 19 19 19 19 19 18 18 18 18 18 17
23 21 20 22 23 23 22 23 23 23 23 23 23 22 23 22 21 21 21 21 21 20 20 19 19 19 20 21 20 21 22 22 22 22 21 20 19 19 19 19 18 18 18 18 18 18 17 16 17 17 17 17 17 17 18 18 18 18 18 17 16 16 16 16 17 18 18 18 18 18 19 19 19 19 19 19 19 19 19 19 18 18 18 18 18 18
21 21 20 21 21 21 21 23 24 24 24 23 23 22 22 22 21 19 19 20 21 20 20 19 18 19 21 21 21 22 22 22 22 21 20 19 19 19 19 19 18 18 18 18 18 18 17 16 17 17 17 17 17 17 17 17 17 17 16 16 16 16 17 17 17 17 18 18 18 18 18 19 19 19 19 19 18 19 18 18 18 18 18 18 18 17
21 21 20 20 21 21 22 24 24 24 25 24 24 23 23 22 21 19 19 19 20 20 20 20 19 19 20 21 21 22 22 22 21 20 19 18 18 18 19 19 19 18 18 18 18 18 16 16 17 17 17 17 17 17 17 17 17 16 16 15 15 15 16 16 16 17 17 17 17 18 18 18 18 18 18 18 18 18 18 18 18 18 18 18 17 17
21 21 20 20 21 21 22 24 24 24 24 23 23 24 23 22 21 21 20 20 20 20 20 20 19 19 20 21 22 22 22 21 20 19 19 18 18 18 18 18 19 18 18 18 18 17 16 16 17 17 16 16 16 17 17 17 16 16 16 16 16 15 15 15 15 15 16 17 17 17 18 18 18 18 18 18 18 18 17 18 18 18 18 18 17 17
20 20 20 19 19 19 20 21 21 22 22 21 22 23 23 23 22 21 21 21 20 20 20 19 18 19 21 21 22 22 21 20 19 19 19 18 18 18 18 18 18 19 19 18 18 18 17 17 16 16 16 17 17 17 17 17 16 16 16 16 16 16 16 16 16 16 16 16 16 17 17 17 17 18 18 18 18 18 18 17 17 17 17 17 17 17
20 19 19 18 17 17 18 19 19 20 20 21 21 22 22 22 22 21 21 20 19 19 20 20 18 18 20 21 21 22 21 19 19 19 19 19 18 18 18 19 19 19 19 18 18 18 17 17 16 16 17 17 17 17 17 16 16 16 16 16 16 16 16 16 16 16 16 16 16 17 16 16 16 17 17 17 16 17 17 17 17 17 17 17 17 17
19 19 19 18 17 17 18 18 20 20 20 20 20 21 21 21 21 21 20 19 19 19 19 20 19 19 19 20 21 21 21 20 19 19 19 19 18 18 18 19 19 19 19 19 18 18 18 18 16 16 17 17 17 17 17 17 16 16 16 16 16 16 16 16 16 16 16 16 16 16 16 15 15 15 15 15 16 16 17 17 16 16 16 16 16 16
18 18 18 18 18 18 19 19 20 20 20 20 20 20 21 21 21 20 19 19 19 19 18 19 20 19 19 20 20 20 21 21 20 19 19 19 19 19 19 19 19 19 19 19 19 18 18 18 17 15 16 17 17 17 17 17 17 16 16 16 16 16 16 16 16 16 15 15 15 15 15 15 15 15 15 15 15 16 16 16 15 15 15 16 16 16
18 17 18 18 18 19 19 19 20 20 20 20 20 20 20 20 20 19 19 19 20 19 18 19 20 19 19 19 20 20 20 21 20 19 19 19 19 19 19 19 19 19 18 18 18 18 18 18 17 16 16 17 17 17 17 17 17 16 16 16 16 16 16 16 16 16 16 16 16 15 15 15 15 15 15 15 15 15 15 15 15 15 15 15 15 16
18 17 18 18 18 18 18 18 19 19 19 19 20 20 20 19 19 19 19 19 19 19 19 19 19 18 17 18 19 19 19 19 19 18 18 18 18 19 19 18 18 17 17 18 18 17 18 18 17 16 17 17 17 17 17 17 17 16 16 16 16 16 16 16 16 16 16 16 16 16 16 16 16 16 16 16 16 16 15 16 16 16 16 16 16 16
18 18 18 18 17 17 17 18 18 19 18 18 18 19 19 19 18 18 18 17 17 17 17 17 17 17 16 17 18 18 17 17 17 17 17 17 17 18 18 18 17 16 16 16 17 17 17 17 16 16 17 17 17 17 17 17 17 17 16 16 16 16 16 16 16 16 16 16 16 16 16 16 16 16 16 16 16 16 16 16 16 16 16 16 16 16
17 17 18 17 16 15 17 17 17 17 16 16 17 18 18 18 18 17 17 17 16 16 16 16 15 15 16 17 17 17 17 17 16 16 17 17 16 16 16 16 16 16 16 16 17 16 17 17 16 15 16 17 17 17 17 16 17 17 16 16 16 16 16 16 16 16 16 16 16 16 16 16 16 16 16 17 16 16 16 16 16 16 16 16 16 16
17 17 17 17 15 15 17 17 16 16 15 15 16 17 17 17 17 17 16 16 16 16 15 15 15 15 16 16 17 17 16 16 16 16 16 15 15 14 14 14 15 15 15 16 17 16 16 16 15 15 15 16 16 16 16 16 16 16 16 16 16 16 16 16 16 16 16 16 16 16 16 16 17 17 17 17 16 16 16 16 16 16 16 16 16 16
18 17 17 16 15 15 16 16 15 14 14 14 15 15 15 16 17 16 16 15 15 15 15 15 15 15 15 15 15 16 16 16 16 16 16 15 14 14 14 14 14 14 14 14 15 15 15 14 14 15 16 15 15 16 16 16 16 16 16 16 16 16 16 16 16 16 16 16 16 16 16 16 16 16 16 16 16 16 16 16 16 16 16 16 16 16
17 17 16 16 15 15 15 15 14 12 13 14 14 13 14 15 16 16 15 14 14 14 14 14 14 14 14 13 13 14 15 16 15 15 15 15 15 15 15 15 14 13 13 13 13 13 13 13 14 15 15 15 15 16 15 15 16 16 16 16 16 16 16 16 16 16 16 16 16 16 16 16 16 16 16 16 16 16 16 16 16 16 16 16 16 16
17 16 16 16 15 14 14 14 12 13 15 15 13 13 14 14 14 15 14 12 12 13 13 13 13 13 13 13 13 14 15 15 15 13 14 14 14 14 15 15 14 13 12 12 12 12 13 14 15 15 15 15 15 15 15 15 15 15 15 15 16 16 16 16 16 16 16 16 16 16 16 16 16 16 16 16 15 15 15 15 15 15 15 15 16 16
17 16 16 15 15 14 14 13 13 14 14 13 12 12 13 13 13 14 13 11 11 12 13 13 13 13 12 12 13 13 14 15 14 13 13 14 14 14 14 14 14 13 12 11 12 13 14 15 15 15 15 15 15 15 15 15 15 15 15 15 15 15 15 15 16 16 16 16 16 16 16 16 16 16 15 15 15 15 15 15 15 15 15 15 15 15
17 16 16 15 14 14 13 13 12 13 12 11 12 12 13 13 13 14 13 11 11 11 12 12 12 12 12 12 12 13 13 13 12 12 13 13 14 14 14 13 13 14 13 12 13 14 15 15 15 15 15 15 15 15 15 15 15 15 15 15 15 15 15 15 15 16 16 16 16 16 16 16 16 15 15 15 15 15 15 15 15 15 15 15 15 15
16 15 15 15 14 14 13 12 12 12 11 10 11 12 12 13 13 13 12 11 10 11 12 12 12 12 12 12 12 12 12 11 11 11 12 13 13 13 13 13 13 14 14 14 14 15 15 15 15 15 15 15 15 15 15 15 15 15 14 15 15 15 15 15 15 15 15 15 15 15 15 15 15 15 15 15 15 15 15 14 14 14 14 14 14 14
14 13 14 14 13 13 13 12 11 11 10 10 10 11 12 13 13 13 11 9 10 11 12 12 12 12 12 12 12 12 11 11 11 11 12 12 12 12 12 12 12 13 14 14 14 14 14 14 14 14 14 15 15 15 15 14 14 14 14 14 14 14 14 15 15 15 15 15 15 15 15 15 15 15 15 15 15 15 14 14 14 14 14 14 14 14
12 12 12 12 12 13 13 12 11 9 9 9 10 11 12 13 12 11 9 9 10 11 11 12 12 12 12 12 12 11 11 11 12 12 13 13 12 12 12 12 13 13 13 14 14 14 14 14 14 14 14 14 14 14 14 14 14 14 14 14 14 14 14 14 14 14 14 15 15 15 15 15 15 15 15 15 15 14 14 14 14 13 13 13 13 13
11 11 11 12 12 11 11 11 11 9 8 9 10 11 12 11 9 9 9 10 11 11 12 12 12 12 12 12 11 11 11 11 12 12 12 12 12 12 11 12 13 13 13 13 14 14 14 14 14 14 14 14 14 14 14 14 14 14 14 14 14 14 14 14 14 14 14 14 14 14 14 14 14 14 14 14 14 14 14 14 13 13 13 13 13 12
11 11 11 11 11 11 10 10 10 9 9 10 10 10 11 10 9 10 11 11 11 11 11 11 11 11 11 11 11 11 11 11 11 11 11 11 11 11 11 11 11 12 12 13 13 13 13 13 13 14 14 14 14 14 14 14 14 14 14 14 14 14 14 14 14 14 14 14 14 14 14 14 14 14 14 14 14 14 14 14 13 13 13 12 12 12
10 10 10 10 10 10 9 9 9 9 11 11 10 10 11 11 11 11 10 10 10 10 9 9 10 10 10 10 10 10 10 10 10 10 10 10 10 10 10 10 11 11 11 11 12 12 12 13 13 13 13 14 14 14 14 14 14 14 13 14 14 14 14 14 14 14 14 14 14 13 13 14 14 14 14 14 14 14 14 13 13 13 12 12 12 11
9 10 10 10 11 10 9 10 11 11 11 12 12 11 11 11 10 10 10 9 9 9 9 9 9 9 10 10 9 9 10 10 10 9 9 9 9 9 9 9 10 10 10 10 10 11 11 12 12 12 13 13 14 14 14 13 13 13 13 13 13 13 13 13 13 13 13 13 13 13 13 13 13 13 13 13 13 13 13 13 13 12 12 12 12 11
9 11 11 10 11 11 11 11 11 10 10 11 12 11 10 9 9 9 9 9 9 9 9 9 9 9 9 9 9 9 9 9 9 9 9 9 9 8 8 9 9 10 10 10 10 10 10 10 11 11 11 12 12 12 12 12 12 12 12 12 12 12 12 12 13 13 13 13 13 13 13 13 13 13 13 13 13 13 13 13 13 12 11 11 11 10
9 10 11 10 10 10 10 9 9 9 10 10 10 9 9 9 9 9 9 9 9 9 9 9 9 9 9 8 8 8 8 8 8 8 8 8 8 8 8 8 9 9 9 9 9 9 9 9 9 10 10 11 11 11 11 11 11 11 11 11 11 11 11 12 12 12 12 12 13 13 13 13 13 13 13 13 13 12 12 12 12 11 11 11 10 9
10 10 10 10 10 10 9 8 8 9 9 9 8 8 8 8 8 9 9 9 9 9 9 8 8 8 8 8 8 8 8 8 8 8 8 8 8 7 8 8 8 9 9 9 9 9 9 8 9 9 9 10 10 10 10 11 11 11 11 11 11 11 11 11 11 11 12 12 12 12 12 12 12 12 12 12 11 11 11 11 11 10 10 10 10 9
10 10 9 9 9 9 8 7 7 8 8 8 8 8 8 8 8 8 8 8 9 8 8 8 8 8 8 8 8 8 7 7 7 8 7 8 7 7 7 8 8 8 8 9 9 8 8 8 8 8 8 9 9 9 10 10 10 10 10 10 10 10 10 10 11 11 11 11 12 12 12 12 12 12 11 11 10 10 10 9 10 10 10 9 9 9
9 8 7 8 8 7 7 7 7 7 6 7 7 7 8 8 8 8 8 8 8 7 7 7 7 7 7 7 7 7 7 7 7 7 7 7 7 7 7 7 7 8 8 8 8 7 7 7 7 8 8 8 8 9 9 9 9 10 10 10 10 10 10 10 10 10 10 11 11 12 12 12 12 11 10 10 10 10 9 8 9 9 9 9 9 8
8 7 7 7 6 6 7 7 7 7 6 7 7 8 8 8 7 7 7 7 7 6 6 6 6 6 6 6 6 6 6 6 6 6 6 6 6 6 7 6 6 6 6 6 6 7 7 7 7 7 7 8 8 8 8 8 8 8 9 9 9 9 10 10 10 10 10 10 11 11 11 11 11 10 10 9 10 9 8 7 7 8 8 8 8 8
Height
743 754 759 759 757 752 748 745 744 743 742 743 745 746 745 745 736 721 720 717 713 727 732 731 735 732 733 731 726 722 721 731 741 743 747 750 751 753 755 758 760 762 762 761 764 765 767 770 771 774 776 778 781 784 787 790 793 794 795 795 795 796 796 797 799 802 803 804 805 806 806 806 807 808 809 810 811 812 813 814 815 815 816 816 816 816
744 758 758 749 747 743 740 739 739 741 742 743 746 748 747 747 740 723 722 720 713 726 735 732 734 734 733 733 728 723 724 734 740 741 745 747 751 753 753 756 758 760 761 762 764 766 768 770 771 774 776 778 781 783 787 789 792 794 794 795 795 796 796 797 799 801 802 803 804 804 805 806 807 808 809 810 811 812 813 815 816 817 817 817 818 818
753 757 748 739 738 737 736 736 737 740 742 744 746 750 752 747 740 731 726 723 718 728 736 733 736 739 735 732 729 726 726 731 734 735 739 742 747 752 752 754 756 759 761 763 765 766 767 769 771 774 776 778 781 783 786 788 791 792 793 795 795 796 796 797 799 800 801 803 803 804 804 806 807 809 810 811 812 813 814 815 817 818 819 819 819 820
759 750 737 732 733 734 737 735 737 741 743 745 746 751 754 745 745 746 736 729 727 731 736 735 738 739 735 732 730 727 726 727 727 728 732 735 741 745 747 749 753 757 761 763 764 765 766 769 770 773 775 777 780 782 784 787 789 791 793 794 795 796 797 798 799 800 801 802 803 804 805 806 807 809 811 811 813 814 815 817 818 819 819 820 820 820
749 736 727 729 732 733 738 738 739 745 748 747 744 748 749 742 745 747 738 733 733 733 733 737 747 744 736 738 736 728 727 728 726 726 728 729 733 740 744 746 749 753 757 761 764 765 766 768 770 772 774 776 779 781 783 785 787 790 792 794 795 796 797 798 799 799 800 801 802 803 805 806 807 809 810 812 814 815 816 817 818 819 820 820 820 821
738 728 724 730 733 733 738 740 739 745 751 750 744 741 740 738 741 741 737 738 747 750 738 740 765 763 740 739 740 731 730 731 728 726 727 728 731 738 743 746 748 751 754 758 760 763 765 767 770 772 773 775 777 779 782 784 786 788 791 792 794 795 796 797 798 798 799 800 801 802 803 805 806 808 810 811 813 814 816 817 818 819 820 820 821 821
731 725 723 729 733 735 739 741 738 739 751 756 744 735 735 735 738 740 739 746 758 760 742 738 766 773 753 743 740 733 733 734 730 728 729 730 733 738 742 745 748 750 753 755 757 759 762 765 768 771 772 773 775 778 781 783 785 787 789 791 792 794 795 796 797 797 798 799 800 801 802 804 805 806 808 810 812 813 815 816 818 819 820 821 821 822
728 727 727 728 732 737 742 744 737 735 750 754 738 731 734 735 738 739 739 747 751 749 745 741 753 769 766 750 736 733 737 737 733 731 731 730 732 737 741 742 745 748 750 753 756 758 761 763 765 768 770 771 773 777 779 782 784 785 787 789 791 794 795 796 796 797 797 798 799 801 802 804 804 805 807 809 811 813 814 816 817 819 820 821 821 822
725 730 731 729 734 740 741 739 733 733 744 743 730 730 733 734 738 738 741 748 745 749 761 753 748 768 773 750 735 736 739 741 737 734 733 732 734 738 741 743 745 749 751 753 756 758 760 762 764 765 768 770 773 775 777 779 781 783 785 788 790 794 796 797 797 797 797 798 798 800 802 803 804 805 806 808 810 812 813 815 817 818 819 820 821 822
722 723 723 727 735 738 735 731 728 732 738 732 726 730 732 733 736 739 745 749 749 761 772 759 751 771 775 752 742 744 743 742 739 735 734 737 739 740 742 745 746 748 750 751 753 755 757 759 762 764 767 769 772 774 776 778 780 782 784 785 788 793 796 797 798 797 797 798 798 799 801 801 803 803 805 807 809 811 812 814 816 817 819 820 821 821
718 715 716 722 728 729 727 727 726 727 728 725 727 733 736 738 738 742 746 747 760 774 771 757 751 766 777 762 747 746 742 738 737 735 736 739 741 741 742 745 746 747 749 751 752 754 755 758 760 763 765 768 771 772 774 777 779 782 783 781 785 793 797 797 798 798 797 798 798 798 800 800 801 802 804 806 808 810 811 813 814 816 818 819 820 821
720 721 722 718 719 721 725 728 726 722 721 725 733 740 748 752 749 754 755 755 774 783 767 756 753 763 778 769 748 741 735 732 734 735 736 740 742 743 744 745 746 749 751 752 755 756 758 760 762 763 765 767 770 771 773 775 777 780 783 781 782 790 796 797 798 798 797 797 797 798 799 800 800 801 802 804 806 808 809 811 813 815 817 819 820 821
728 726 723 719 717 718 727 734 732 726 724 729 736 745 761 771 771 775 775 771 780 779 762 757 761 768 774 761 745 738 731 730 732 732 736 740 741 743 744 745 747 750 752 754 756 758 760 762 763 764 765 767 769 770 771 774 776 779 783 783 783 788 795 796 797 798 797 798 798 798 799 799 800 800 801 803 805 807 808 810 812 814 817 818 820 821
741 730 720 723 723 718 725 737 742 739 733 736 740 749 766 778 786 792 786 781 783 777 760 755 763 774 771 755 743 737 733 733 733 733 736 739 740 742 744 747 750 752 754 755 756 758 760 762 763 763 764 766 768 769 770 772 776 779 783 786 787 789 794 796 796 798 798 798 799 799 799 799 800 800 802 803 805 806 808 809 811 814 816 818 819 821
754 749 730 726 728 723 723 729 735 735 735 736 733 740 756 765 777 789 787 787 788 780 766 761 769 779 774 757 742 736 734 735 736 736 736 738 741 744 746 749 752 754 756 757 758 759 761 761 762 762 763 765 767 769 770 772 775 778 781 786 788 789 795 798 797 798 799 799 801 801 800 800 800 801 802 804 805 806 807 809 811 813 815 817 819 820
751 751 727 718 721 721 723 721 719 727 739 737 728 737 750 749 756 771 774 775 778 779 774 769 770 769 762 751 739 734 735 736 739 739 739 744 746 748 752 754 755 757 758 760 761 762 762 762 763 762 761 763 765 768 771 772 774 777 780 785 787 788 795 800 799 799 801 802 803 802 801 800 800 801 803 804 806 807 808 809 810 812 814 816 818 820
750 746 724 718 719 716 719 719 716 727 740 738 737 743 741 733 741 761 770 765 769 783 781 769 768 764 759 753 741 736 738 739 740 741 743 749 750 752 757 758 759 761 762 763 764 765 765 764 764 764 763 764 766 769 771 772 774 777 779 782 784 788 795 801 802 804 806 805 805 804 804 802 801 801 803 804 806 808 808 809 810 812 814 815 817 819
746 748 730 722 726 717 711 717 717 719 728 738 746 741 732 731 737 752 770 773 777 789 780 766 768 770 770 764 748 740 743 743 743 743 747 751 752 756 760 761 763 764 764 766 767 767 767 766 766 766 766 767 769 770 772 773 774 776 779 780 783 791 798 801 801 802 803 803 804 806 806 804 802 802 803 804 806 808 809 810 811 812 813 814 816 818
738 752 739 722 726 721 711 720 728 722 720 730 736 730 734 752 756 756 769 779 784 789 782 769 765 769 774 770 757 750 748 747 746 746 750 753 755 758 761 763 765 766 767 768 768 769 769 769 769 768 768 768 769 770 772 773 775 777 780 781 785 793 797 797 796 796 796 797 799 804 806 805 804 803 803 804 806 807 808 810 811 812 813 814 816 818
734 753 752 729 723 725 722 729 740 736 726 726 730 729 734 748 757 757 760 767 776 784 784 775 772 775 773 766 762 757 751 751 752 750 752 755 756 759 761 764 766 768 770 770 770 771 770 770 770 770 770 770 770 771 771 772 774 775 778 779 783 789 790 790 791 791 793 794 795 799 803 804 804 804 804 804 805 807 808 809 811 812 813 814 815 817
735 750 757 741 729 735 739 736 737 738 735 736 741 744 744 745 752 758 758 757 764 777 784 784 788 785 768 759 760 756 750 752 753 753 757 758 758 760 761 764 767 768 770 771 771 771 771 772 772 771 772 771 771 772 772 773 773 774 775 776 778 781 783 786 788 788 790 792 794 796 799 802 803 804 804 804 805 806 808 809 811 812 813 814 815 816
744 750 756 753 747 748 746 734 727 730 732 736 741 745 748 749 757 773 780 768 760 768 777 784 792 784 762 755 756 752 749 751 752 756 761 761 761 762 762 764 766 768 771 771 772 772 772 772 772 772 773 772 773 773 774 774 774 775 776 777 778 779 780 784 787 790 792 793 795 796 797 799 801 803 803 804 805 806 808 810 811 812 813 814 815 816
743 748 756 759 753 748 740 728 726 728 727 729 733 736 741 746 754 774 786 775 764 764 766 774 785 777 760 754 753 751 751 751 752 757 761 763 764 763 764 765 767 769 771 772 772 773 773 773 773 773 774 774 775 775 776 776 776 777 778 778 780 781 783 785 788 790 792 794 795 795 795 797 799 801 803 804 806 807 808 809 810 811 813 814 815 816
742 749 759 761 753 746 738 729 727 726 728 735 735 733 738 745 749 758 764 763 764 766 766 775 785 777 761 754 752 754 755 754 755 757 760 765 765 764 766 768 769 771 771 773 774 774 774 774 774 774 774 775 776 777 778 778 778 779 780 780 781 782 785 787 788 790 792 793 795 795 795 797 799 801 802 804 805 807 809 809 809 810 811 813 814 816
749 753 759 767 769 764 755 749 745 741 742 747 745 740 740 742 746 751 754 759 767 768 766 776 788 779 762 754 753 754 757 760 761 760 762 765 766 767 768 769 770 772 772 774 775 775 775 775 775 775 775 776 777 778 779 779 780 780 781 782 783 784 787 788 790 791 792 794 796 796 795 797 799 800 800 801 802 804 807 807 807 808 810 812 814 816
751 756 759 770 781 780 775 771 765 758 754 752 749 746 744 743 747 753 758 767 775 772 766 773 784 778 763 757 757 755 759 765 765 764 765 766 767 769 769 770 771 772 773 774 775 776 776 776 776 777 777 778 778 779 780 781 781 782 783 784 785 786 788 789 791 792 793 795 796 796 796 797 799 800 800 801 802 803 805 804 804 804 806 810 813 815
752 758 759 765 773 774 773 767 760 757 759 758 754 751 749 749 750 755 763 771 774 774 772 771 773 775 770 764 762 759 759 764 767 767 768 769 770 770 770 772 772 772 773 773 774 777 777 777 778 778 778 779 779 780 781 782 783 783 785 786 787 788 789 790 792 792 794 795 796 797 798 799 800 801 801 802 803 804 804 804 803 802 803 807 810 812
757 763 760 761 764 763 762 759 754 754 758 758 756 754 752 752 753 760 768 768 766 774 779 769 764 772 773 765 764 762 759 762 766 768 769 770 771 771 771 772 772 773 774 773 775 776 777 778 779 779 780 780 781 782 782 783 784 785 786 787 788 789 790 791 792 793 794 795 796 797 798 799 800 801 802 802 803 803 803 803 803 803 804 807 809 810
758 765 760 760 762 760 758 757 756 756 756 755 755 756 755 755 757 762 764 762 761 770 775 767 763 770 771 765 764 763 760 761 764 766 766 767 768 770 771 772 772 773 774 774 776 777 777 779 779 780 782 782 782 784 784 785 786 786 788 788 789 790 791 792 793 793 795 796 797 798 799 799 800 800 801 802 802 802 802 802 802 803 804 806 807 807
755 763 760 760 765 764 761 761 759 758 758 756 755 755 756 758 760 762 763 762 762 765 767 767 768 772 773 770 765 762 763 764 764 768 770 771 771 770 770 773 775 777 777 776 775 776 778 779 780 781 783 783 784 785 786 787 788 788 790 790 791 792 792 793 794 794 795 796 797 798 798 799 800 800 801 801 801 802 802 802 803 803 804 804 805 805
756 763 760 760 769 771 766 764 762 761 763 763 760 758 759 761 762 763 766 767 768 770 770 769 773 777 775 771 766 765 766 767 768 771 773 774 776 774 772 773 775 778 781 780 777 777 778 779 781 782 783 784 786 786 788 789 789 790 791 792 793 793 793 794 795 795 796 796 796 797 798 798 799 799 800 800 800 801 801 802 802 803 803 803 804 804
759 763 760 763 776 777 768 766 766 765 768 770 767 764 763 764 766 767 769 769 771 775 775 774 780 784 777 770 769 768 767 769 773 774 774 775 777 778 779 779 777 778 778 777 776 776 777 778 780 782 783 785 786 787 788 790 790 791 792 793 794 794 794 795 795 796 796 796 796 797 797 798 798 798 799 799 799 800 801 801 802 802 802 802 803 803
758 763 764 768 778 778 769 768 770 771 777 779 772 769 767 765 767 769 771 772 772 774 778 781 785 783 776 772 772 771 771 773 775 775 776 778 779 780 782 783 783 781 778 775 775 775 777 778 778 780 783 785 787 788 789 790 791 792 792 794 794 795 795 795 795 796 796 796 797 796 796 797 797 797 798 798 798 799 799 800 801 801 801 801 802 802
757 762 765 767 775 779 772 769 774 782 789 785 775 772 771 768 767 770 775 778 777 776 778 781 782 780 778 779 778 777 776 776 775 776 777 779 781 781 782 783 784 783 781 780 779 778 778 779 779 780 783 785 787 789 790 791 792 793 793 794 795 795 796 796 796 796 796 796 796 796 796 796 796 797 797 797 798 798 799 799 800 800 800 801 801 801
758 761 764 766 772 777 774 775 787 794 787 778 775 775 773 771 770 770 775 781 781 780 781 783 784 784 784 785 784 782 779 777 777 779 780 781 781 781 782 783 784 785 785 786 785 783 782 782 782 782 784 786 787 788 790 791 792 793 794 794 795 795 796 796 796 796 796 796 796 796 796 796 796 796 796 797 797 798 798 799 799 800 800 800 800 800
757 761 764 766 770 776 778 784 793 789 775 772 779 779 775 776 775 773 780 788 788 785 786 788 788 787 786 786 786 784 781 778 779 783 784 784 783 782 783 784 784 787 788 789 789 788 786 785 785 785 785 787 788 789 790 791 792 793 794 794 794 795 795 796 796 795 795 795 795 796 796 796 796 796 796 796 797 797 798 799 799 799 799 799 799 799
752 759 763 766 770 775 779 783 785 780 777 782 787 785 782 784 784 780 786 795 795 790 788 789 789 789 789 788 787 786 782 780 783 786 786 785 785 784 785 785 786 788 789 789 790 790 790 789 789 788 788 788 789 790 791 791 792 793 793 793 794 794 795 795 795 795 795 795 795 795 795 796 796 796 796 796 796 797 798 798 798 799 799 798 798 798
748 754 760 766 770 772 777 784 786 787 791 794 793 789 786 785 784 782 786 795 798 794 791 790 790 791 791 789 789 788 785 786 791 792 789 787 787 786 786 786 787 787 789 790 790 790 791 791 790 789 789 789 790 791 791 791 791 792 792 793 794 794 794 794 794 794 794 794 794 795 795 795 795 795 795 796 796 796 797 797 797 798 798 798 798 797
750 756 758 762 768 771 777 787 790 791 797 800 797 791 787 786 784 781 788 800 803 797 793 793 792 793 792 791 791 790 790 795 799 797 792 790 789 789 789 789 788 787 788 789 789 789 790 791 790 790 789 788 789 789 790 790 791 791 792 792 793 794 794 794 794 794 794 793 793 794 794 794 794 794 794 795 795 795 796 796 796 796 797 797 797 796
759 764 765 767 771 772 776 783 789 795 802 803 799 793 789 786 783 786 798 808 805 798 796 795 794 794 793 793 793 793 796 800 800 796 792 791 791 790 791 791 790 789 788 788 789 789 790 790 790 790 789 789 789 788 789 789 789 790 790 791 792 793 793 793 793 793 793 793 792 793 793 793 793 793 793 793 794 794 794 795 795 795 795 795 796 795
771 772 773 775 777 776 777 781 790 803 808 804 800 796 789 786 789 799 809 810 803 799 798 796 795 795 793 793 795 796 797 798 796 794 793 792 791 791 791 791 791 790 789 788 788 788 788 788 788 789 789 789 788 788 788 788 788 788 788 789 789 790 791 792 792 792 792 792 791 792 792 792 792 792 792 792 792 792 793 793 793 794 794 794 794 794
781 782 780 779 781 783 786 787 793 807 812 806 801 795 790 796 808 811 808 804 800 799 798 796 796 796 795 795 796 797 797 796 795 794 794 793 793 792 791 791 790 790 790 789 788 788 788 787 787 786 786 787 787 787 786 786 786 786 786 786 786 787 788 789 790 790 790 790 790 790 790 790 791 791 790 790 790 791 791 791 791 792 792 792 793 792
785 787 787 787 787 788 791 795 802 810 808 802 802 800 798 804 810 805 800 800 800 800 800 799 798 798 798 798 798 798 797 796 796 796 795 794 794 793 792 792 791 790 790 789 788 788 787 786 786 785 784 784 784 784 784 784 784 783 784 784 784 785 786 786 787 787 787 788 788 788 789 789 789 789 789 789 789 789 789 789 789 790 790 791 792 791
791 792 793 794 794 795 800 805 808 807 801 798 803 805 803 802 802 800 802 804 803 803 804 803 801 800 800 800 799 799 798 797 797 797 796 796 795 794 794 793 791 790 790 789 789 788 787 786 785 783 783 782 782 782 782 782 781 781 781 781 781 782 783 783 784 785 785 785 786 786 787 787 787 787 787 787 787 787 787 787 787 787 788 790 790 790
798 795 794 795 794 796 802 803 800 799 798 797 798 800 801 802 803 804 805 805 805 805 804 803 803 802 801 800 800 800 799 798 798 797 797 797 796 795 794 793 792 791 789 789 789 788 787 786 784 782 781 780 779 779 779 779 779 779 779 779 780 780 781 781 781 782 782 783 783 784 785 785 785 785 785 785 785 785 784 784 784 785 786 787 787 788
798 793 792 794 794 794 796 795 796 799 800 798 798 800 803 806 806 805 805 806 806 805 804 803 803 802 801 801 801 800 800 800 799 798 797 796 795 795 794 792 791 790 788 787 787 787 787 786 784 782 780 779 777 777 776 776 777 777 777 777 778 778 779 779 780 779 780 780 780 781 782 782 782 783 783 783 783 782 781 782 782 783 784 785 785 786
797 793 792 795 797 799 800 802 804 805 802 801 802 804 805 806 806 806 807 806 805 804 803 803 802 802 801 801 801 800 800 799 798 797 796 795 794 793 792 791 789 788 787 786 785 785 785 784 783 781 779 778 777 776 775 775 775 775 775 775 775 776 777 777 777 778 778 778 778 779 779 779 780 780 781 780 780 780 780 780 781 782 783 784 784 785
796 795 795 797 799 800 804 808 808 806 803 804 806 807 807 807 807 806 806 805 804 804 803 802 802 802 801 800 800 799 798 797 797 796 794 793 792 791 790 789 788 786 785 784 783 784 783 782 781 780 778 776 775 775 774 773 772 772 772 772 773 773 774 774 775 775 775 775 776 776 777 777 778 778 778 778 778 778 779 779 780 781 782 783 784 784
796 799 802 803 802 803 807 810 810 808 806 806 808 809 809 808 806 806 805 805 804 803 803 802 802 801 800 800 799 798 797 796 795 793 792 791 790 789 789 787 786 785 783 782 782 781 781 780 779 778 777 775 774 773 772 771 770 770 770 770 770 771 771 771 772 772 773 773 773 773 774 775 775 776 776 776 776 777 777 778 779 780 781 782 782 783
801 808 809 809 810 813 816 815 814 814 814 812 811 810 809 808 807 807 806 805 804 804 803 802 801 801 800 799 798 797 796 794 793 792 791 789 788 788 787 786 785 783 782 781 780 779 779 778 777 776 775 773 772 771 770 769 768 767 767 767 768 768 768 768 768 769 770 771 771 771 771 772 772 772 773 773 774 774 775 776 777 778 779 781 782 782
808 812 812 815 818 819 816 814 814 816 817 815 812 811 810 809 809 809 808 808 807 805 804 804 803 802 801 800 799 798 796 794 792 791 789 788 787 786 785 784 784 782 781 780 779 778 777 776 775 774 772 771 770 769 768 767 766 765 765 765 765 765 765 766 766 766 766 768 769 769 769 769 770 770 771 771 772 772 773 774 776 777 779 780 781 782
Wind_Speed
4 3 4 6 7 8 7 3 2 2 3 5 6 6 7 8 7 1 10 8 6 7 4 3 4 6 5 7 8 7 8 12 16 13 10 10 8 9 11 12 14 12 11 13 18 22 23 25 22 21 27 29 27 26 24 23 23 22 22 21 21 22 22 21 21 20 18 18 18 17 18 18 17 18 18 17 15 15 14 14 13 12 11 9 8 7
4 5 7 9 9 10 7 3 2 4 5 5 4 5 7 7 7 4 8 4 5 7 2 4 2 5 4 4 6 5 9 10 15 14 12 12 9 9 10 13 13 10 10 13 15 18 22 24 21 22 28 29 29 28 26 25 24 22 21 21 22 22 22 22 21 20 19 18 18 17 18 19 19 17 15 13 12 12 11 12 13 11 10 9 7 7
4 5 10 12 9 7 4 2 4 5 5 4 4 5 5 4 5 6 6 6 6 4 2 5 5 6 6 6 6 3 8 8 13 16 15 15 11 10 10 12 12 10 11 12 12 15 20 23 21 23 27 29 29 28 27 26 24 23 21 20 21 21 22 20 17 18 19 17 17 18 19 22 20 17 15 15 15 14 13 13 12 12 12 10 8 9
4 7 12 11 7 5 1 3 5 5 4 3 2 3 5 5 3 4 3 4 5 3 1 3 6 6 6 6 7 2 4 4 7 12 13 14 13 12 11 13 14 12 12 14 13 12 16 20 20 22 26 28 29 28 27 26 25 23 22 21 21 21 20 17 17 19 19 17 19 21 22 23 22 20 19 17 16 15 15 15 13 13 13 12 11 12
7 6 5 5 7 6 3 3 2 3 3 4 4 3 5 7 3 1 3 2 4 4 2 5 6 5 5 5 6 5 3 6 5 8 9 9 10 13 12 12 14 14 13 14 14 11 12 16 18 22 26 27 29 27 26 27 26 24 23 22 22 21 18 17 19 21 20 21 23 25 24 24 23 22 20 18 17 16 16 15 14 13 12 12 13 14
9 6 6 7 4 4 5 2 2 4 1 4 5 6 7 8 6 1 2 3 5 5 3 5 4 5 6 5 7 6 2 7 6 7 7 5 8 13 13 12 12 11 11 13 14 12 11 14 18 21 24 26 27 27 26 26 26 24 24 23 22 21 19 19 20 20 21 22 24 24 24 24 23 21 19 18 20 18 16 15 14 13 12 11 12 12
5 5 6 7 3 2 4 1 2 4 2 3 4 5 5 8 7 3 2 3 3 2 3 5 5 3 6 6 7 5 3 6 5 6 6 5 9 12 12 11 11 10 10 12 14 13 12 15 17 19 22 25 26 26 25 25 26 25 24 23 23 22 20 21 22 21 21 21 21 20 21 23 23 21 19 19 20 18 16 16 16 15 14 13 13 12
2 2 3 6 4 1 2 2 4 4 4 3 5 4 5 6 6 3 2 1 3 3 2 2 5 2 4 6 7 6 4 3 4 7 7 5 7 11 13 12 12 11 10 11 11 12 12 14 18 20 23 26 27 27 25 24 26 25 25 24 23 22 21 21 22 21 21 21 20 20 21 22 22 22 21 20 19 17 16 18 17 15 15 13 13 13
2 4 4 5 4 2 3 4 6 5 5 5 6 4 2 4 6 6 4 3 2 1 3 4 1 2 3 6 7 8 4 3 6 6 7 5 5 9 12 11 8 8 8 9 9 10 10 14 19 23 25 26 28 28 26 26 26 24 25 25 22 22 22 21 23 22 21 22 21 22 23 22 23 22 22 20 19 17 17 19 17 15 15 14 13 13
4 5 6 5 4 3 4 6 7 7 7 6 4 2 2 3 5 6 5 3 3 4 2 5 1 1 4 6 4 4 3 5 6 6 7 9 9 11 11 10 9 9 10 10 11 11 13 19 23 23 24 25 26 27 27 27 25 23 25 27 23 22 24 23 22 23 22 23 24 24 24 25 25 24 21 21 20 19 19 18 16 15 15 14 13 12
4 2 4 3 4 3 3 4 6 8 6 4 1 2 4 2 2 4 3 1 4 2 4 5 3 3 3 5 3 1 3 5 5 5 7 10 9 9 9 8 8 8 8 7 8 8 12 19 22 24 24 23 23 25 26 26 25 22 23 27 24 22 26 26 24 25 25 25 25 24 25 27 26 25 24 23 22 20 19 18 16 16 15 14 12 12
5 1 2 2 5 4 3 4 5 7 4 3 3 3 5 4 3 2 4 4 3 3 4 2 3 3 3 4 4 2 3 5 7 7 8 10 9 8 8 8 8 8 7 7 6 4 6 10 14 19 21 20 21 22 24 24 25 23 21 26 27 24 27 29 27 27 27 27 26 24 26 27 25 25 25 24 23 21 20 19 18 17 15 14 13 12
6 4 3 2 5 5 2 1 5 7 4 2 3 4 4 3 4 2 3 2 1 4 4 3 5 1 4 5 4 1 3 3 5 7 8 10 10 9 9 8 9 9 8 8 7 6 5 5 6 14 16 17 20 22 24 24 24 23 22 25 27 26 29 31 30 29 29 29 27 24 26 26 24 26 24 23 23 21 20 20 19 17 15 14 13 11
4 5 3 1 3 5 4 2 1 3 1 3 3 3 3 2 0 1 2 1 1 3 5 3 3 1 3 3 5 3 3 6 8 9 9 9 9 8 9 10 11 10 9 7 6 6 6 5 3 10 16 17 19 22 24 24 23 23 24 24 22 21 26 31 32 30 29 30 26 23 26 26 25 26 23 22 22 20 19 19 17 15 14 13 13 11
2 4 4 2 2 5 5 5 6 4 2 3 4 5 5 4 4 2 1 1 2 3 4 2 2 1 2 3 6 1 6 9 10 10 8 9 9 9 10 11 11 9 8 7 6 6 5 6 8 4 12 19 21 22 24 23 23 23 24 26 23 17 18 26 31 30 28 30 26 21 24 26 25 24 22 20 21 19 18 18 16 15 13 12 11 10
2 4 5 4 7 8 4 3 5 2 1 4 1 4 3 4 5 3 3 5 4 1 2 2 2 3 2 4 6 2 7 8 9 9 9 9 9 11 10 9 9 8 7 7 6 5 5 7 12 12 6 13 20 20 20 22 21 21 22 23 23 19 17 23 28 24 23 27 24 18 22 26 23 22 21 19 19 18 17 17 15 15 13 11 11 9
3 5 6 3 11 9 2 1 1 3 2 3 2 1 4 5 7 4 2 2 3 3 2 2 1 1 0 3 5 2 6 7 8 7 8 9 10 11 9 7 8 7 6 6 5 4 4 8 11 14 15 12 17 21 20 21 21 20 20 21 24 24 17 14 16 14 13 19 18 13 18 23 22 21 20 20 18 16 16 16 14 14 14 12 11 10
2 3 8 3 4 4 4 3 2 2 4 1 2 3 2 1 5 4 1 1 3 1 3 3 3 2 1 3 4 2 5 6 8 8 9 10 10 11 9 8 8 7 7 6 6 6 6 9 12 13 16 14 12 17 20 22 22 21 20 20 24 24 14 11 19 18 13 14 14 10 13 19 20 19 18 19 18 16 15 16 14 13 14 13 12 11
2 1 7 6 4 3 1 3 1 4 1 2 5 3 2 2 1 1 1 1 2 2 2 4 3 1 2 2 5 4 4 5 6 9 11 10 10 10 8 8 8 7 6 6 6 7 6 8 12 15 16 16 13 10 10 14 16 18 21 25 30 28 20 19 25 24 18 17 17 15 15 16 17 17 16 16 17 17 16 16 15 13 12 13 12 11
2 2 4 6 7 7 5 3 2 3 4 2 4 3 2 3 3 2 2 3 3 3 2 3 1 2 2 2 4 4 2 5 4 6 9 10 10 10 8 8 7 6 5 5 6 5 5 8 12 16 18 19 17 15 11 8 6 6 12 22 31 30 24 23 23 23 22 20 20 19 18 16 15 16 16 14 16 19 17 15 15 14 12 11 11 11
3 2 2 6 8 6 4 1 2 2 1 1 1 2 2 1 2 1 2 0 3 3 1 1 2 3 4 2 4 3 5 6 5 6 7 7 9 9 8 8 7 7 5 4 5 5 5 8 12 15 18 19 20 19 16 15 14 11 8 16 26 27 26 25 21 23 25 20 19 20 18 16 15 14 14 13 14 19 18 14 14 13 11 11 11 10
2 2 1 3 5 3 4 6 5 2 0 2 2 3 2 2 4 3 4 4 0 3 3 3 1 5 5 2 4 3 5 5 7 9 7 7 9 8 8 8 7 7 6 5 5 5 5 7 11 15 17 18 19 19 18 18 20 20 18 16 20 23 26 25 20 19 21 17 14 17 16 15 13 11 11 11 12 16 17 14 13 10 9 11 10 9
1 3 2 1 3 4 7 10 9 8 6 0 3 3 3 3 5 4 3 4 2 1 2 4 2 4 5 3 5 4 3 3 8 11 8 7 8 8 8 7 7 7 6 6 5 4 5 8 12 14 15 16 17 17 18 18 20 22 23 21 19 18 18 21 20 17 17 14 13 15 15 13 12 10 9 9 10 12 13 13 12 11 9 10 9 7
2 3 2 2 4 5 8 10 9 9 7 3 1 3 4 2 3 4 3 3 2 1 1 3 0 3 5 4 3 3 5 3 8 10 10 8 6 7 8 7 7 7 6 6 5 5 7 10 11 12 13 15 16 16 16 17 17 19 20 21 21 19 17 17 17 15 15 14 13 14 14 12 12 12 10 8 7 8 10 11 11 12 12 10 9 7
1 1 2 1 3 5 6 7 7 7 6 3 3 4 4 3 5 4 2 3 2 1 3 4 1 3 5 3 3 4 6 8 8 7 9 8 6 7 7 6 7 6 6 7 6 5 7 7 8 9 11 13 14 15 16 16 16 16 18 19 19 17 16 15 15 15 14 15 14 14 14 13 14 15 14 13 13 13 13 12 11 12 12 11 12 11
1 1 3 4 2 1 1 0 2 5 5 3 4 6 4 4 6 4 2 4 2 3 2 4 3 4 4 5 6 7 8 9 7 6 7 7 6 7 6 6 6 6 6 6 5 5 5 6 7 9 11 13 14 15 17 17 16 17 17 17 17 17 15 14 14 14 12 12 12 12 11 11 12 13 15 14 14 14 15 14 13 13 12 12 14 16
2 1 2 3 5 4 3 3 2 4 4 4 6 7 6 5 6 5 3 2 2 1 3 1 5 3 1 3 5 5 7 7 6 6 6 5 5 6 6 5 4 5 6 6 6 5 5 5 6 9 12 14 14 15 16 15 15 15 14 14 15 16 16 15 14 12 11 9 9 8 8 9 9 10 12 12 10 12 14 14 14 14 13 15 18 20
3 2 1 1 2 3 5 7 8 7 6 5 6 7 6 6 6 4 0 4 4 2 4 2 5 4 4 5 4 3 5 5 4 6 5 5 5 4 5 7 6 5 5 5 6 7 6 6 6 7 10 13 14 14 15 14 13 12 12 11 12 12 13 12 13 12 12 10 10 10 9 8 8 9 9 7 6 7 9 11 12 11 12 15 19 21
4 1 3 2 3 5 5 7 8 7 6 6 5 5 6 6 6 4 4 5 2 1 5 4 3 1 3 1 2 4 5 5 5 5 6 7 6 4 3 5 6 6 7 7 6 6 7 6 6 8 11 13 15 15 15 15 14 12 10 8 9 10 10 9 10 11 11 10 10 11 10 9 9 9 8 7 6 6 6 7 8 10 12 15 17 19
4 2 2 1 2 4 5 7 8 7 7 7 6 6 6 6 5 4 4 4 2 2 6 4 4 2 2 4 4 4 5 6 8 6 3 3 3 4 4 4 2 1 1 4 8 8 7 6 6 9 11 12 13 14 13 14 15 13 11 9 9 9 8 8 9 9 10 10 9 10 10 9 8 8 7 7 7 7 8 8 9 10 12 13 14 14
3 1 1 2 3 4 5 6 8 7 7 7 7 7 6 6 7 5 3 5 4 2 2 6 8 5 4 4 5 6 7 8 10 9 8 7 5 3 1 3 4 2 3 5 4 8 8 7 7 8 11 12 10 9 9 10 13 13 11 11 10 9 8 8 7 7 8 8 7 7 6 5 5 6 5 3 4 5 7 9 10 11 11 12 12 13
2 0 1 4 3 3 4 4 6 6 8 8 7 6 5 5 4 3 2 3 3 4 7 9 8 4 6 5 6 7 8 9 9 8 7 7 8 9 8 4 1 2 9 9 6 8 9 8 8 9 11 10 7 7 8 7 8 13 11 8 7 8 7 6 6 6 6 6 6 5 4 3 4 4 3 2 3 3 4 5 6 8 9 11 12 13
3 2 1 2 2 3 3 3 6 7 7 6 4 5 5 3 3 5 4 5 6 6 5 4 2 3 5 6 7 7 8 8 7 7 7 7 8 10 10 8 9 6 3 5 5 7 7 7 11 14 15 13 9 9 11 13 9 9 8 5 4 4 3 5 6 5 5 5 4 4 3 2 3 2 1 1 2 2 1 0 1 3 4 6 7 9
1 2 2 2 2 2 1 5 7 5 2 4 2 7 7 3 5 6 4 7 8 6 4 4 3 5 8 8 8 7 6 6 6 7 7 7 7 8 9 9 9 11 9 5 5 6 7 8 12 17 17 14 12 9 9 9 6 5 4 2 1 1 2 3 5 6 5 4 3 2 3 3 2 2 2 3 3 2 1 2 3 5 6 6 6 6
3 3 1 2 3 1 2 7 5 3 4 2 5 9 8 6 6 7 7 10 10 8 8 8 8 8 9 9 8 7 6 5 8 11 10 8 6 6 7 8 9 11 10 7 6 7 9 10 12 16 16 13 11 8 8 9 5 1 0 2 4 5 4 3 3 5 6 5 4 2 2 3 3 2 2 1 1 1 1 2 3 5 6 7 7 7
5 4 2 2 3 2 2 3 2 4 3 4 8 8 7 7 7 5 7 10 11 8 8 8 7 7 8 8 8 7 6 5 7 10 11 10 9 8 7 7 8 9 8 7 8 8 9 10 10 11 10 8 5 3 6 9 7 4 5 5 3 3 4 6 7 6 4 5 5 4 4 5 4 4 3 2 2 2 2 3 4 4 6 7 8 8
5 4 3 2 1 3 4 3 2 2 5 6 5 5 5 5 4 2 4 6 9 9 7 6 7 8 8 8 8 7 7 6 6 7 9 10 9 9 8 8 9 9 7 8 6 4 4 5 5 6 6 5 4 2 4 6 8 8 9 8 6 7 7 8 9 7 6 6 7 7 7 6 5 4 4 4 4 4 3 4 4 5 7 8 9 10
6 5 5 3 2 3 4 1 1 1 2 2 1 4 5 4 4 3 3 4 7 9 8 7 7 8 8 8 9 8 6 6 6 5 8 9 9 9 9 10 12 13 9 7 6 3 6 4 3 6 7 5 3 4 6 6 7 9 8 7 8 10 11 11 10 9 8 7 7 7 6 5 4 5 6 6 5 5 5 6 6 7 8 9 11 12
4 2 4 4 2 3 4 2 1 2 2 2 4 6 7 6 6 5 3 3 6 8 8 8 7 7 7 7 8 7 5 6 4 5 6 8 9 9 10 11 14 16 15 10 7 7 10 12 8 3 3 3 1 4 5 6 8 9 8 9 10 12 13 13 13 11 8 6 5 5 4 4 4 5 5 6 7 8 9 9 9 8 8 9 11 13
7 5 4 4 2 2 3 3 1 1 1 3 6 7 8 7 6 6 2 1 6 7 6 7 7 6 6 6 7 6 4 2 3 5 5 7 9 10 10 11 12 15 17 16 13 11 12 13 11 8 5 4 5 6 7 9 11 11 10 10 11 12 14 14 15 14 12 10 9 8 8 8 8 8 9 11 13 13 13 12 10 9 9 10 11 13
4 3 3 4 3 1 2 2 1 1 1 4 7 7 8 7 6 5 1 2 4 6 6 7 7 6 5 5 5 3 2 1 3 5 5 7 8 10 12 13 13 15 18 19 18 18 17 16 12 9 9 9 10 10 10 12 13 13 13 12 13 14 15 16 17 17 16 15 13 11 11 10 11 11 12 13 14 15 14 13 11 10 9 9 11 14
3 2 2 3 2 2 2 2 2 1 1 4 6 6 6 4 2 1 2 3 4 5 6 6 6 6 5 5 4 4 4 6 6 7 7 7 7 7 10 14 15 15 16 18 20 20 19 18 17 17 15 14 14 14 14 14 15 15 16 17 17 17 17 17 17 17 17 16 15 14 13 13 13 14 14 13 12 13 13 13 12 11 10 10 12 12
2 1 2 3 2 2 2 3 3 2 3 4 3 5 5 2 2 3 2 3 3 5 7 6 5 5 6 6 6 6 6 7 8 8 8 8 8 8 11 13 13 13 16 18 19 20 20 18 18 18 18 15 14 15 14 13 14 14 14 15 16 16 16 17 17 17 17 17 15 14 14 14 14 13 13 12 12 14 15 15 15 13 11 9 10 9
5 2 1 1 1 2 3 2 1 2 3 2 2 0 1 1 1 2 3 3 4 6 6 5 5 6 6 5 6 6 6 6 7 7 8 8 9 10 13 14 13 13 16 18 20 23 24 21 20 21 21 19 17 17 17 16 16 15 13 14 15 15 16 17 16 16 16 16 16 15 16 16 17 16 16 17 18 18 18 17 16 14 11 9 9 8
2 1 1 1 1 2 2 2 3 3 2 1 3 2 2 6 7 6 5 4 4 4 4 4 6 7 7 6 6 6 5 6 7 7 7 8 8 9 12 15 16 16 16 17 20 24 25 23 22 22 24 24 22 20 20 18 16 14 12 12 12 12 13 15 16 16 16 16 16 17 18 19 21 21 20 20 20 21 20 19 17 15 13 12 11 10
2 3 3 1 2 2 1 1 5 5 4 5 5 5 8 9 7 6 6 5 4 4 4 4 5 6 6 7 6 5 5 6 7 7 7 7 8 10 12 15 17 18 18 18 19 21 23 23 23 22 21 20 18 17 16 14 12 10 10 10 10 11 13 14 15 15 15 16 17 20 21 20 19 18 18 18 20 21 18 17 16 15 14 13 12 12
3 5 4 2 2 2 1 5 9 8 6 7 8 8 9 8 6 6 5 4 4 5 5 5 5 5 6 6 6 6 6 6 7 7 7 7 7 9 11 14 16 17 18 18 18 20 22 22 22 21 19 18 18 17 16 15 14 13 14 14 14 15 16 17 17 18 17 16 16 17 18 17 15 15 17 17 16 13 9 9 10 11 11 11 13 14
2 3 3 3 3 1 1 7 9 6 5 8 8 7 7 8 7 6 5 4 5 5 5 5 5 5 4 5 5 6 6 7 7 7 7 6 7 8 10 14 16 17 18 18 20 21 20 19 20 19 18 18 18 18 17 17 17 17 17 17 17 17 18 19 20 20 20 20 19 18 17 16 16 17 17 12 9 8 9 8 7 7 8 10 13 15
3 3 2 4 4 2 3 8 10 7 6 8 9 7 7 7 7 7 7 6 6 6 6 7 7 6 6 6 6 6 7 7 7 7 7 7 6 8 11 14 16 17 18 18 19 19 18 18 19 19 18 18 19 19 18 17 17 17 17 17 17 18 19 20 21 20 20 20 21 22 21 20 20 20 16 12 13 11 10 10 9 8 9 10 12 13
4 3 3 4 4 3 3 5 5 4 3 5 7 8 8 8 7 8 8 8 8 8 7 8 9 10 10 10 9 8 7 8 8 8 8 7 7 10 13 15 16 16 16 16 16 17 18 19 20 20 19 20 20 19 18 17 17 17 17 17 18 19 20 22 23 24 22 20 20 22 22 21 22 19 16 16 14 11 11 10 9 9 9 9 9 10
3 2 2 3 2 2 3 3 4 2 2 4 6 7 7 6 7 8 8 8 8 8 8 8 8 9 10 12 14 13 9 8 10 10 8 8 11 13 13 13 14 15 16 16 17 16 18 20 21 21 19 17 16 16 17 17 18 17 16 16 16 17 19 21 22 22 22 20 19 20 20 18 15 13 15 16 15 14 13 12 10 8 7 6 6 8
Wind_Direction
170 169 235 227 232 237 229 213 254 319 -0 338 332 322 324 327 307 151 141 170 135 120 184 203 213 246 241 220 210 180 129 119 137 143 146 155 154 156 154 150 157 166 172 171 171 175 178 184 186 167 156 156 154 156 158 158 159 156 156 154 150 150 146 141 141 139 139 142 140 134 131 132 129 128 125 122 125 124 119 113 108 103 100 97 91 95
171 188 231 228 228 228 204 146 56 21 12 350 347 331 330 329 315 23 100 124 76 94 260 337 357 288 309 288 259 167 125 132 148 150 155 161 167 172 161 153 157 157 160 165 169 175 179 184 182 162 157 158 155 157 160 162 163 162 161 159 156 155 149 142 143 146 145 147 149 145 141 138 134 135 131 121 122 125 122 118 114 107 107 104 108 120
203 222 240 232 225 222 203 87 59 44 21 2 -0 342 318 303 320 1 56 76 64 69 298 354 14 312 321 332 315 128 134 157 159 156 162 164 169 180 165 152 156 153 155 163 169 170 171 178 177 162 158 160 159 159 161 164 165 165 165 164 162 158 152 148 153 159 154 153 154 147 146 143 134 132 128 115 111 114 114 115 113 111 110 104 119 140
205 236 240 226 197 192 202 41 44 38 14 331 306 321 291 287 343 346 347 70 72 71 135 33 13 316 319 350 337 348 130 151 148 144 155 165 172 180 168 151 155 158 159 165 170 169 168 174 173 163 159 160 161 161 161 164 166 167 170 170 166 159 156 155 156 157 153 150 147 140 140 139 131 126 122 115 113 111 110 112 110 111 108 102 113 125
226 232 215 179 162 164 117 63 42 46 353 299 254 240 264 286 332 5 300 13 39 12 68 67 22 314 320 351 306 307 87 130 140 130 149 170 163 163 160 151 157 164 165 164 167 168 167 170 170 165 161 159 163 164 163 166 168 170 174 175 169 164 165 163 157 154 148 141 137 132 131 130 128 126 123 121 120 113 110 111 111 113 112 107 112 117
236 219 143 126 152 156 108 104 193 143 293 305 260 234 238 264 286 260 308 31 51 342 320 90 51 298 308 320 277 289 99 156 166 141 161 171 131 144 157 158 161 162 158 160 166 168 163 164 165 164 164 160 163 167 167 169 171 173 177 178 173 170 172 170 165 162 155 148 143 139 134 132 131 131 131 131 127 121 117 114 111 112 110 105 110 118
225 209 147 120 89 57 77 347 261 152 164 290 268 268 267 269 280 266 297 48 110 257 260 123 118 268 306 309 274 273 253 216 181 120 134 130 114 138 155 157 161 160 156 160 166 167 160 161 162 165 169 168 166 167 168 171 173 175 178 178 176 175 176 174 173 173 168 159 154 151 144 140 139 136 136 136 130 125 119 114 109 104 101 98 101 109
187 142 117 107 92 65 109 264 258 184 167 235 247 279 312 304 308 303 305 313 201 225 298 131 137 180 287 288 272 282 286 227 149 112 116 118 119 142 156 164 164 163 162 160 163 167 164 164 167 170 174 176 174 170 170 173 173 177 180 179 177 178 180 178 177 179 176 169 161 154 148 145 144 138 135 135 131 125 119 115 114 108 103 101 99 99
161 134 151 131 114 174 197 226 243 213 194 225 220 213 284 338 346 335 326 297 238 126 317 299 143 159 266 271 275 293 292 149 133 127 117 91 79 115 142 157 144 133 149 155 159 165 167 173 176 176 178 181 181 179 180 180 175 175 177 177 176 181 186 184 182 182 179 173 162 154 152 151 147 141 137 136 131 127 124 121 119 116 110 108 104 102
188 168 167 145 127 186 218 229 243 240 218 211 213 203 69 38 339 321 312 313 40 80 255 282 331 109 280 273 278 317 279 173 153 153 122 92 84 96 119 143 142 144 158 167 169 166 170 178 182 180 179 180 181 183 188 188 184 177 172 170 174 185 190 190 186 183 179 169 160 160 161 154 148 144 141 139 134 132 132 126 120 121 120 118 116 112
232 159 137 139 148 195 249 242 246 254 232 169 170 337 36 34 285 284 289 23 65 25 247 245 252 235 275 282 268 306 231 179 136 135 118 100 98 98 105 119 130 142 148 152 161 165 170 176 178 180 180 175 175 181 186 188 188 186 176 166 170 189 195 194 190 184 177 168 164 169 167 158 152 150 147 144 142 140 137 131 127 128 129 126 125 121
281 130 139 188 171 192 288 304 293 290 293 76 73 42 37 352 333 350 339 41 80 273 257 270 309 253 235 273 266 227 173 149 132 132 121 107 99 89 89 89 89 98 98 99 106 119 151 160 169 178 180 173 171 176 182 186 186 187 183 172 174 192 199 195 191 186 179 172 171 175 170 162 158 155 153 150 149 147 143 139 137 134 131 128 128 123
284 237 210 198 176 181 184 292 306 309 318 65 73 65 63 332 344 13 334 16 176 244 258 357 19 14 225 255 263 210 80 84 131 131 116 110 103 92 90 81 76 81 78 79 81 76 88 107 158 183 182 172 171 179 183 186 184 181 183 182 182 193 199 196 192 188 184 177 176 176 171 166 162 160 159 155 152 151 146 145 145 143 137 133 134 130
298 298 278 204 164 175 156 144 242 289 286 150 152 115 126 186 32 318 285 350 262 268 289 322 47 6 285 285 275 240 100 73 89 101 100 104 103 97 92 82 77 78 71 67 66 64 67 65 111 183 188 177 172 180 185 184 180 177 182 190 194 200 202 197 191 189 187 182 179 178 172 167 165 165 162 157 156 154 150 150 151 150 145 139 141 139
284 315 280 263 149 173 177 173 187 218 250 215 192 153 149 159 151 183 196 142 228 267 306 331 108 285 290 270 279 279 99 85 85 92 90 84 83 85 83 79 80 79 76 71 59 50 44 40 45 96 187 190 179 175 180 181 179 178 182 193 199 204 212 203 192 190 189 184 182 181 174 169 168 168 163 159 160 158 155 155 156 157 154 145 145 147
206 245 242 198 161 166 178 202 192 175 309 277 274 111 155 179 149 152 179 178 181 205 312 305 195 210 207 258 284 52 90 90 96 100 94 82 80 85 81 77 79 77 79 83 78 61 36 41 43 47 100 174 177 169 172 176 178 179 182 191 194 195 214 213 196 189 188 185 186 185 176 171 168 167 164 161 165 165 160 158 159 165 164 154 152 153
181 252 287 175 156 156 138 271 186 104 122 294 329 144 214 182 135 119 233 204 100 78 270 239 224 268 3 288 278 155 110 100 107 106 99 94 88 89 85 81 80 73 74 79 95 104 56 48 49 48 63 107 155 168 178 186 192 192 184 187 191 193 208 210 186 180 183 185 190 188 176 172 168 166 165 165 168 170 167 162 161 167 168 164 165 162
139 257 302 305 160 168 167 176 347 65 109 41 305 255 276 65 106 108 116 9 78 115 254 223 192 201 161 275 278 190 148 137 132 119 103 97 93 92 91 90 85 76 73 69 71 73 53 46 48 50 55 71 123 158 174 188 199 200 193 196 198 197 199 175 168 176 179 176 183 194 188 179 171 167 166 169 171 171 171 168 162 164 170 172 175 172
54 338 299 314 342 334 153 134 15 337 53 178 244 271 46 76 63 51 108 132 148 169 277 265 224 172 132 249 286 264 192 158 140 126 117 111 106 101 98 99 95 85 74 64 62 60 56 55 52 54 57 57 69 99 140 167 181 185 188 196 196 192 183 169 170 174 172 168 176 195 205 193 180 176 173 173 176 174 174 174 169 167 171 175 179 179
59 87 286 313 346 353 1 77 135 297 310 257 259 309 48 145 170 201 183 164 163 173 245 283 319 335 266 225 280 296 76 80 76 110 119 119 114 111 113 112 107 103 91 76 78 72 68 71 67 64 62 61 61 60 69 92 113 148 170 174 176 175 168 167 171 171 169 168 176 191 201 196 186 183 182 183 184 181 177 173 172 172 174 176 181 183
40 87 242 304 344 2 348 299 182 190 329 11 355 351 346 10 80 45 323 245 137 142 188 31 43 282 269 290 321 342 74 81 78 89 97 107 109 107 112 115 114 115 109 96 95 91 83 84 81 76 70 68 68 65 62 61 56 48 79 139 153 155 156 163 170 173 173 172 178 186 189 188 185 182 180 178 181 184 181 172 169 174 181 186 188 187
38 97 177 298 334 332 277 290 324 357 110 136 137 158 157 105 84 55 323 303 43 127 152 141 161 260 262 321 336 4 62 71 94 102 104 109 108 105 106 109 114 120 124 125 114 105 104 101 92 85 78 74 72 69 65 64 64 62 68 104 136 145 151 157 157 165 173 172 171 172 172 174 174 167 162 154 155 171 176 172 166 166 173 180 181 185
89 101 83 292 277 283 293 306 325 329 319 281 143 138 122 113 114 134 226 259 273 286 142 127 143 265 269 317 348 349 350 49 108 118 119 109 105 105 101 97 99 107 119 124 122 121 110 99 95 91 87 83 78 75 73 69 70 71 73 89 111 122 136 150 152 157 165 162 157 154 154 157 156 151 148 141 141 151 161 169 172 171 172 170 164 165
4 80 76 305 295 310 315 315 317 321 330 339 10 70 74 90 110 129 190 215 214 278 74 97 44 281 280 306 338 310 318 53 105 115 115 112 110 108 103 99 97 95 97 105 110 115 109 100 96 93 89 87 85 82 80 76 76 78 78 84 96 104 116 135 149 159 162 161 158 150 143 145 152 155 155 157 164 165 166 173 183 191 196 197 196 193
299 72 100 37 342 338 332 332 333 340 3 3 332 22 50 41 56 64 33 38 33 318 106 111 180 262 275 315 357 349 17 65 92 100 107 114 115 111 109 109 110 109 111 120 126 128 123 117 110 103 97 94 92 91 88 84 82 83 85 87 92 103 116 128 144 155 158 159 160 156 155 166 173 175 182 193 201 204 199 193 197 204 207 214 224 232
144 116 111 122 160 245 271 280 352 341 352 355 334 346 1 19 43 62 66 58 11 307 47 104 172 250 295 2 16 7 34 71 88 81 91 107 113 115 117 118 124 131 133 130 129 135 139 136 132 127 119 110 106 101 94 91 91 89 90 93 97 104 113 123 136 144 146 153 159 164 177 196 200 196 201 206 201 201 206 206 207 210 216 230 234 232
78 58 90 131 175 199 235 264 331 346 334 328 326 328 334 2 29 53 72 101 165 353 350 180 158 175 289 52 50 24 40 71 99 95 78 69 86 110 118 126 138 139 134 119 101 91 84 91 113 133 138 134 125 116 107 99 98 97 94 96 101 107 112 117 126 132 134 140 152 162 180 201 202 195 200 206 204 211 223 224 217 217 227 237 236 232
68 15 327 294 257 266 285 301 319 323 307 301 304 310 323 342 1 24 58 211 168 68 315 242 116 110 208 174 127 95 67 62 97 125 113 80 88 127 144 147 149 136 123 109 97 92 83 68 64 89 116 129 128 124 121 116 110 106 103 104 108 109 111 117 123 125 126 131 144 157 163 166 165 168 178 186 196 217 230 229 225 228 233 232 233 238
105 180 262 287 293 293 297 304 309 303 297 301 300 307 322 333 344 339 276 248 172 172 238 209 97 25 243 178 114 128 114 75 79 133 157 139 139 173 173 148 154 155 145 133 117 104 93 80 62 64 81 101 110 114 118 121 124 123 116 111 113 113 114 122 128 129 132 137 146 158 163 161 160 167 174 178 184 194 207 214 218 224 229 232 238 245
97 180 247 329 327 324 336 329 320 314 308 306 307 316 322 327 344 344 306 316 20 214 219 170 92 33 358 24 35 79 90 70 64 69 69 76 128 172 152 138 138 73 95 159 145 133 119 105 86 71 70 80 94 108 119 125 127 130 132 131 127 126 131 138 142 144 148 148 145 150 158 160 164 170 174 181 188 192 199 207 216 221 225 231 237 244
62 199 207 76 31 347 334 316 311 316 321 319 317 329 348 358 2 10 10 10 20 341 343 58 68 38 337 349 34 56 60 59 58 55 46 27 3 8 87 178 162 112 296 267 162 134 133 126 109 89 80 72 68 86 111 129 137 138 142 148 150 151 150 151 154 152 152 152 147 147 154 160 165 168 169 178 189 195 207 218 228 236 238 239 239 243
84 207 23 70 57 311 291 307 323 343 359 350 336 350 17 30 26 32 42 46 68 53 27 40 52 6 318 339 25 45 56 61 59 51 40 24 17 30 35 10 13 188 222 223 173 146 150 146 135 112 92 80 71 67 57 65 128 145 143 142 147 145 143 151 164 157 146 151 152 152 161 157 155 167 185 208 200 200 216 228 239 248 252 250 247 248
121 106 66 99 117 256 271 355 -0 12 15 342 327 3 359 354 68 65 32 30 63 75 60 65 74 329 339 8 23 36 53 62 62 52 41 35 37 43 46 35 18 359 268 202 152 143 143 134 124 110 93 78 72 66 54 52 76 115 118 105 106 118 145 171 183 179 166 170 177 174 170 158 151 166 173 128 121 113 116 261 307 311 300 284 270 259
126 114 149 143 132 249 303 37 24 11 337 267 316 16 360 359 88 94 64 37 46 58 75 98 68 13 18 25 26 34 49 59 60 54 55 63 62 49 42 41 34 24 23 46 76 81 78 88 104 104 96 87 79 68 57 51 55 79 85 77 120 203 233 204 198 203 193 188 196 175 162 168 167 158 129 119 106 77 19 318 320 322 320 319 314 300
170 141 175 161 140 191 35 49 36 282 237 190 42 22 7 22 70 98 83 50 42 48 55 56 43 32 37 37 26 22 23 40 56 51 44 46 54 60 51 40 40 41 36 33 45 68 81 85 94 96 88 81 80 68 36 16 3 35 54 277 228 215 232 249 251 233 205 201 218 213 199 208 209 209 189 142 116 36 3 321 309 307 306 307 309 309
156 153 191 190 153 143 88 94 162 242 281 40 42 20 10 22 28 51 60 37 27 40 56 59 50 41 42 38 24 9 358 17 56 53 38 29 28 38 42 35 48 63 61 39 24 34 63 73 79 92 91 82 86 79 30 16 8 2 355 336 286 229 240 254 262 257 224 206 215 218 229 235 228 222 217 210 225 238 258 285 295 300 301 298 293 295
179 176 171 173 168 136 142 176 206 310 339 3 23 9 11 25 11 34 85 43 14 15 27 44 47 39 36 31 16 0 358 23 47 32 20 23 23 23 25 27 38 54 87 113 98 46 53 82 92 101 109 116 116 78 15 13 2 346 340 333 318 308 296 274 260 257 250 239 233 232 238 239 230 220 219 228 238 239 246 264 280 288 291 293 291 288
194 191 161 156 186 131 126 152 302 338 302 292 347 358 3 11 355 5 94 66 2 355 7 28 38 34 32 25 10 360 13 43 39 -0 359 11 10 11 14 15 21 26 44 105 116 37 1 9 91 125 132 134 102 30 8 359 342 332 331 325 312 307 305 300 291 279 267 256 245 237 232 230 233 234 232 234 234 237 248 262 272 280 283 288 292 289
75 87 128 133 144 115 115 134 201 195 216 281 338 353 346 337 349 14 71 53 342 336 0 23 27 28 29 19 9 13 38 47 11 329 347 1 1 11 14 2 1 4 4 8 24 26 14 4 1 32 105 121 41 342 332 310 297 296 299 301 298 296 295 294 293 290 286 284 280 266 250 247 257 256 243 236 241 250 260 265 267 268 272 282 290 291
42 29 52 72 81 124 144 159 197 152 96 348 340 341 329 328 13 51 81 337 327 322 349 17 12 14 27 20 12 27 58 63 300 294 332 357 358 4 3 353 347 347 346 347 349 352 352 348 345 347 344 318 296 299 297 283 271 262 260 267 273 276 278 279 282 286 289 288 284 276 267 263 264 264 258 256 258 260 258 257 256 258 265 275 283 290
20 22 51 56 50 58 148 144 112 104 34 333 321 323 325 338 32 68 180 254 298 310 344 12 356 349 13 25 19 17 12 324 306 315 346 1 355 346 339 335 334 334 334 332 330 330 329 325 320 319 316 309 305 302 294 282 271 261 258 261 261 263 267 269 271 274 275 274 270 265 262 259 258 258 260 259 257 252 248 246 247 251 260 269 280 290
7 8 19 30 42 42 70 101 71 29 259 266 289 324 355 12 43 155 220 237 265 301 339 348 330 334 355 14 23 9 342 342 348 348 350 347 336 326 324 324 324 323 323 323 324 323 319 313 307 301 293 291 292 289 283 274 269 267 265 261 257 260 265 266 265 264 265 266 266 264 263 262 262 262 264 266 260 249 241 239 241 247 257 271 283 287
26 29 0 1 22 49 59 71 56 0 245 229 273 345 20 70 204 234 252 270 308 349 352 338 334 359 10 12 14 5 355 354 349 343 344 342 333 325 320 317 318 322 324 321 319 317 315 312 308 302 295 289 286 286 288 283 276 273 266 258 258 263 265 265 267 267 267 269 272 273 271 270 268 268 267 270 270 262 252 245 245 249 252 264 275 267
19 20 52 21 17 43 43 52 101 227 236 187 112 14 312 11 13 14 15 6 13 17 7 354 354 2 10 14 4 353 349 348 341 340 343 339 333 330 323 318 322 329 331 327 322 319 314 307 300 297 294 291 288 291 297 297 289 280 274 274 278 273 262 259 262 264 267 271 273 276 277 276 275 275 275 274 272 267 258 246 242 241 236 238 248 228
356 323 108 81 61 91 128 187 186 195 218 89 109 139 54 34 31 34 39 35 21 10 4 1 350 345 353 2 357 350 345 335 332 336 334 327 324 324 319 317 320 324 325 325 324 322 319 313 307 302 296 289 285 283 286 288 285 277 278 290 298 293 281 274 269 264 264 268 269 272 276 276 273 269 267 267 266 262 255 247 240 228 214 211 216 201
0 12 47 49 29 54 116 86 47 34 11 18 42 56 52 44 31 24 26 21 7 355 348 344 338 339 350 354 348 341 334 328 326 322 316 313 312 310 309 310 314 317 319 320 318 319 320 319 318 316 312 307 304 301 301 304 302 298 305 313 315 313 310 301 288 277 270 268 269 270 269 266 265 263 263 268 271 266 255 243 229 210 195 190 190 185
18 27 48 64 46 37 25 35 31 11 354 19 34 35 34 31 21 17 15 356 342 336 328 333 341 344 347 347 340 330 321 319 315 307 303 302 299 299 302 302 302 305 308 310 312 315 316 314 311 309 309 310 312 312 314 315 313 312 315 316 313 310 308 305 302 296 285 274 271 270 268 266 267 270 270 269 266 257 232 206 198 191 185 183 181 179
17 39 41 35 44 119 84 33 21 356 358 26 29 21 15 8 358 352 347 339 335 328 326 338 345 340 332 323 313 307 303 301 299 293 292 293 291 290 293 295 298 302 303 305 308 310 310 312 312 310 309 309 311 310 306 302 300 300 301 302 303 302 299 298 297 296 291 283 271 264 268 273 275 276 271 249 209 179 165 166 178 191 195 196 194 188
36 45 12 11 18 13 23 21 13 5 8 13 11 4 354 344 341 344 346 346 346 344 343 343 338 331 323 313 305 305 307 302 294 290 290 289 288 292 294 293 295 298 299 302 305 305 307 310 310 310 312 315 315 312 306 300 297 296 294 292 293 293 293 293 291 289 291 288 274 263 262 266 269 268 253 208 173 160 157 160 172 186 193 199 204 205
44 38 12 35 39 4 354 13 23 19 339 333 346 346 337 339 352 354 349 347 350 352 349 345 341 338 333 329 327 321 310 303 301 298 296 294 293 296 300 303 304 305 307 310 312 314 315 313 307 303 304 308 310 309 305 300 295 292 289 287 286 285 284 284 284 282 281 280 274 265 259 260 263 256 223 188 175 170 159 154 166 181 188 195 204 212
73 74 69 98 141 241 306 354 34 54 274 293 324 328 328 354 6 357 353 352 348 352 358 353 345 341 336 334 334 328 314 312 321 318 309 309 312 311 313 320 325 323 321 319 314 309 305 302 299 298 300 305 311 312 310 307 304 299 296 291 286 285 283 279 276 276 276 275 271 263 256 255 254 229 195 183 182 177 163 149 147 158 175 197 211 214